Tracking 32139 objects as of 16-Nov-2025
HD Live streaming from Space Station
objects crossing your sky now

IRIDIUM 33 DEB

Track IRIDIUM 33 DEB now!
10-day predictions


NORAD ID: 34525
Int'l Code: 1997-051HS
Perigee: 752.6 km
Apogee: 760.2 km
Inclination: 86.4 °
Period: 99.8 minutes
Semi major axis: 7127 km
RCS: 0.0234 m2 (small)
Launch date: September 14, 1997
Source: United States (US)
Launch site: TYURATAM MISSILE AND SPACE COMPLEX (TTMTR)

Note: This is SATELLITE DEBRIS
Your satellite tracking list
Your tracking list is empty




NASA's NSSDC Master Catalog

Two Line Element Set (TLE):
1 34525U 97051HS  25320.53652257  .00002417  00000-0  71911-3 0  9994
2 34525  86.3738  58.0234 0005326 157.3150 213.7341 14.42810270877109
Source of the keplerian elements: AFSPC